State College, PA

8:30 AM EDT on March 23, 2017 (GMT -0400)
University Park

Weather History for KUNV - September, 2013

Change the Weather History Date:

Saturday, September 14, 2013

  Actual Average Record
Temperature  
Mean Temperature 56 °F -  
Max Temperature 66 °F 75 °F 92 °F (1952)
Min Temperature 47 °F 53 °F 35 °F (1985)
Degree Days  
Heating Degree Days 8    
Growing Degree Days 6 (Base 50)    
Moisture  
Dew Point 43 °F    
Average Humidity 70    
Maximum Humidity 87    
Minimum Humidity 37    
Precipitation  
Precipitation 0.00 in - - ()
Sea Level Pressure  
Sea Level Pressure 30.07 in    
Wind  
Wind Speed 5 mph (NW)    
Max Wind Speed 12 mph    
Max Gust Speed -    
Visibility 10 miles    
Events      
Averages and records for this station are not official NWS values.
T = Trace of Precipitation, MM = Missing Value Source: NWS Daily Summary

Daily Weather History Graph

Daily Weather History Graph

Search for Another Location

Airport or City:

Trip Planner

Search our weather history database for the weather conditions in past years. The results will help you decide how hot, cold, wet, or windy it might be!

Date:

Astronomy

Sep. 14, 2013 Rise Set
Actual Time 6:51 AM EDT 7:21 PM EDT
Civil Twilight 6:23 AM EDT 7:49 PM EDT
Nautical Twilight 5:51 AM EDT 8:21 PM EDT
Astronomical Twilight 5:17 AM EDT 8:54 PM EDT
Moon 4:03 PM EDT (9/14) 1:19 AM EDT (9/14)
Length of Visible Light 13h 25m
Length of Day
12h 30m
Waxing Gibbous, 72% of the Moon is Illuminated
Sep 14
Waxing Gibbous
Sep 19
Full
Sep 26
Last Quarter
Oct 4
New
Oct 11
First Quarter

Hourly Weather History & Observations

Time (EDT) Temp. Dew Point Humidity Pressure Visibility Wind Dir Wind Speed Gust Speed Precip Events Conditions
12:15 AM 52.3 °F 43.0 °F 70% 29.99 in 10.0 mi NNW 9.2 mph - N/A   Overcast
12:35 AM 52.2 °F 43.0 °F 71% 30.00 in 10.0 mi NNW 6.9 mph - N/A   Overcast
12:55 AM 52.2 °F 43.0 °F 71% 30.00 in 10.0 mi NNW 6.9 mph - N/A   Overcast
1:15 AM 52.0 °F 43.2 °F 72% 30.00 in 10.0 mi NNW 8.1 mph - N/A   Overcast
1:35 AM 51.8 °F 43.3 °F 73% 30.00 in 10.0 mi NW 3.5 mph - N/A   Overcast
1:55 AM 51.4 °F 43.7 °F 75% 30.00 in 10.0 mi NNW 4.6 mph - N/A   Overcast
2:15 AM 51.4 °F 43.7 °F 75% 30.01 in 10.0 mi NW 3.5 mph - N/A   Overcast
2:35 AM 51.1 °F 43.7 °F 76% 30.00 in 10.0 mi NW 5.8 mph - N/A   Overcast
2:55 AM 50.9 °F 43.7 °F 76% 30.01 in 10.0 mi Calm Calm - N/A   Overcast
3:15 AM 50.9 °F 43.7 °F 76% 30.01 in 10.0 mi Calm Calm - N/A   Overcast
3:35 AM 50.5 °F 43.7 °F 77% 30.01 in 10.0 mi NW 3.5 mph - N/A   Overcast
3:55 AM 50.2 °F 43.7 °F 78% 30.01 in 10.0 mi Calm Calm - N/A   Overcast
4:15 AM 50.2 °F 43.9 °F 79% 30.01 in 10.0 mi Calm Calm - N/A   Overcast
4:35 AM 50.2 °F 43.9 °F 79% 30.01 in 10.0 mi WNW 3.5 mph - N/A   Overcast
4:55 AM 50.4 °F 43.5 °F 77% 30.01 in 10.0 mi NW 5.8 mph - N/A   Overcast
5:15 AM 50.5 °F 43.2 °F 76% 30.02 in 10.0 mi NW 5.8 mph - N/A   Overcast
5:35 AM 50.5 °F 43.5 °F 77% 30.02 in 10.0 mi NW 4.6 mph - N/A   Overcast
5:53 AM 50.0 °F 42.8 °F 76% 30.02 in 10.0 mi NW 8.1 mph - N/A   Overcast
6:53 AM 50.0 °F 42.8 °F 76% 30.06 in 10.0 mi NW 5.8 mph - N/A   Overcast
7:53 AM 50.0 °F 42.8 °F 76% 30.08 in 10.0 mi NW 6.9 mph - N/A   Overcast
10:53 AM 53.6 °F 39.2 °F 58% 30.12 in 10.0 mi NNW 5.8 mph - N/A   Overcast
11:53 AM 53.6 °F 41.0 °F 62% 30.13 in 10.0 mi NW 5.8 mph - N/A   Overcast
12:53 PM 53.6 °F 41.0 °F 62% 30.12 in 10.0 mi WNW 11.5 mph - N/A   Overcast
1:53 PM 57.2 °F 39.2 °F 51% 30.11 in 10.0 mi West 5.8 mph - N/A   Scattered Clouds
2:53 PM 60.8 °F 39.2 °F 45% 30.10 in 10.0 mi NW 5.8 mph - N/A   Partly Cloudy
3:53 PM 64.4 °F 39.2 °F 40% 30.08 in 10.0 mi WNW 4.6 mph - N/A   Clear
4:53 PM 66.2 °F 39.2 °F 37% 30.08 in 10.0 mi Calm Calm - N/A   Clear
5:53 PM 64.4 °F 39.2 °F 40% 30.09 in 10.0 mi NW 5.8 mph - N/A   Clear
6:53 PM 62.6 °F 39.2 °F 42% 30.10 in 10.0 mi NW 5.8 mph - N/A   Clear
7:53 PM 60.8 °F 41.0 °F 48% 30.11 in 10.0 mi WNW 4.6 mph - N/A   Clear
8:53 PM 57.2 °F 42.8 °F 59% 30.12 in 10.0 mi West 4.6 mph - N/A   Clear
9:15 PM 55.8 °F 43.0 °F 62% 30.13 in 10.0 mi WSW 4.6 mph - N/A   Clear
9:35 PM 50.2 °F 44.2 °F 80% 30.13 in 10.0 mi South 3.5 mph - N/A   Clear
9:55 PM 50.0 °F 44.6 °F 82% 30.14 in 10.0 mi Calm Calm - N/A   Clear
10:15 PM 51.1 °F 45.0 °F 80% 30.14 in 10.0 mi Calm Calm - N/A   Clear
10:35 PM 47.8 °F 43.9 °F 86% 30.15 in 10.0 mi South 4.6 mph - N/A   Clear
10:55 PM 49.5 °F 45.0 °F 84% 30.15 in 10.0 mi SW 3.5 mph - N/A   Clear
11:15 PM 47.1 °F 43.5 °F 87% 30.16 in 10.0 mi Calm Calm - N/A   Clear
11:35 PM 48.6 °F 44.8 °F 87% 30.16 in 10.0 mi Calm Calm - N/A   Clear
11:55 PM 48.2 °F 44.6 °F 87% 30.16 in 10.0 mi Calm Calm - N/A   Clear